Chievres, Belgium

12:58 PM CEST on April 29, 2017 (GMT +0200)
Chievres Air Base

Weather History for EBCV - March, 2014

Change the Weather History Date:

Sunday, March 9, 2014

  Actual Average Record
Temperature  
Mean Temperature 53 °F -  
Max Temperature 68 °F 49 °F 68 °F (2014)
Min Temperature 38 °F 40 °F 30 °F (1998)
Degree Days  
Heating Degree Days 12    
Growing Degree Days 3 (Base 50)    
Moisture  
Dew Point 36 °F    
Average Humidity 54    
Maximum Humidity 87    
Minimum Humidity 16    
Precipitation  
Precipitation 0.00 in - - ()
Sea Level Pressure  
Sea Level Pressure 30.30 in    
Wind  
Wind Speed 7 mph ()    
Max Wind Speed 14 mph    
Max Gust Speed -    
Visibility 5.7 miles    
Events      
Averages and records for this station are not official NWS values.
T = Trace of Precipitation, MM = Missing Value Source: Averaged Metar Reports

Daily Weather History Graph

Daily Weather History Graph

Search for Another Location

Airport or City:

Trip Planner

Search our weather history database for the weather conditions in past years. The results will help you decide how hot, cold, wet, or windy it might be!

Date:

Astronomy

Mar. 09, 2014 Rise Set
Actual Time 7:12 AM CET 6:39 PM CET
Civil Twilight 6:39 AM CET 7:11 PM CET
Nautical Twilight 6:01 AM CET 7:49 PM CET
Astronomical Twilight 5:23 AM CET 8:28 PM CET
Moon 11:52 AM CET (3/9) 2:51 AM CET (3/9)
Length of Visible Light 12h 32m
Length of Day
11h 27m
First Quarter, 59% of the Moon is Illuminated
Mar 9
First Quarter
Mar 16
Full
Mar 24
Last Quarter
Mar 30
New
Apr 7
First Quarter

Hourly Weather History & Observations

Time (CET) Temp. Windchill Dew Point Humidity Pressure Visibility Wind Dir Wind Speed Gust Speed Precip Events Conditions
12:00 AM 45 °F - 35 °F 59% 30.30 in 5 mi 2.2 mph - -  
12:25 AM 42.8 °F 40.1 °F 35.6 °F 76% 30.27 in 4.3 mi SSE 4.6 mph - N/A   Unknown
1:00 AM 42 °F - 35 °F 68% 30.30 in 4 mi 2.2 mph - -  
1:25 AM 41.0 °F - 33.8 °F 76% 30.27 in 4.3 mi Variable 1.2 mph - N/A   Unknown
2:00 AM 41 °F - 34 °F 68% 30.31 in 5 mi South 4.5 mph - -  
2:07 AM 42.8 °F 37.5 °F 33.8 °F 70% 30.30 in 5.0 mi South 9.2 mph - N/A   Unknown
2:10 AM 42.8 °F 37.5 °F 33.8 °F 70% 30.30 in 4.3 mi South 9.2 mph - N/A   Unknown
2:21 AM 44.6 °F 39.2 °F 33.8 °F 66% 30.30 in 5.6 mi South 10.4 mph - N/A   Unknown
2:25 AM 44.6 °F 39.2 °F 33.8 °F 66% 30.30 in 6.2 mi South 10.4 mph - N/A   Unknown
2:37 AM 42.8 °F 37.5 °F 33.8 °F 70% 30.30 in 4.3 mi South 9.2 mph - N/A   Unknown
3:00 AM 43 °F - 33 °F 58% 30.30 in 4 mi South 8.9 mph - -  
3:23 AM 48.2 °F - 33.8 °F 58% 30.27 in 5.0 mi South 11.5 mph - N/A   Unknown
3:25 AM 48.2 °F - 33.8 °F 58% 30.27 in 5.6 mi South 12.7 mph - N/A   Unknown
3:34 AM 48.2 °F - 33.8 °F 58% 30.27 in 4.3 mi South 12.7 mph - N/A   Unknown
3:57 AM 50.0 °F - 32.0 °F 50% 30.27 in 5.0 mi South 13.8 mph - N/A   Unknown
4:00 AM 49 °F - 33 °F 41% 30.29 in 5 mi South 13.4 mph - -  
4:24 AM 48.2 °F - 32.0 °F 54% 30.27 in 4.3 mi South 12.7 mph - N/A   Unknown
4:25 AM 48.2 °F - 32.0 °F 54% 30.27 in 5.6 mi South 11.5 mph - N/A   Unknown
5:00 AM 48 °F - 32 °F 42% 30.30 in 6 mi SSE 11.2 mph - -  
5:21 AM 46.4 °F 41.5 °F 32.0 °F 57% 30.27 in 4.3 mi SSE 10.4 mph - N/A   Unknown
5:25 AM 48.2 °F - 32.0 °F 54% 30.27 in 6.2 mi SSE 10.4 mph - N/A   Unknown
6:00 AM 46 °F - 32 °F 46% 30.30 in 7 mi South 8.9 mph - -  
6:25 AM 46.4 °F 41.9 °F 32.0 °F 57% 30.27 in 5.6 mi SSE 9.2 mph - N/A   Unknown
6:36 AM 46.4 °F 41.5 °F 32.0 °F 57% 30.27 in 4.3 mi SSE 10.4 mph - N/A   Unknown
6:47 AM 46.4 °F 41.9 °F 32.0 °F 57% 30.30 in 6.2 mi SSE 9.2 mph - N/A   Unknown
7:00 AM 47 °F - 32 °F 43% 30.30 in 6 mi SSE 8.9 mph - -  
7:14 AM 46.4 °F 42.4 °F 32.0 °F 57% 30.30 in 4.3 mi South 8.1 mph - N/A   Unknown
7:25 AM 44.6 °F 39.7 °F 32.0 °F 61% 30.30 in 5.0 mi South 9.2 mph - N/A   Unknown
7:33 AM 42.8 °F 38.0 °F 33.8 °F 70% 30.30 in 4.3 mi South 8.1 mph - N/A   Unknown
8:00 AM 46 °F - 34 °F 51% 30.32 in 5 mi South 6.7 mph - -  
8:25 AM 48.2 °F - 35.6 °F 62% 30.30 in 5.6 mi South 8.1 mph - N/A   Unknown
8:37 AM 50.0 °F - 35.6 °F 58% 30.30 in 3.7 mi South 8.1 mph - N/A   Unknown
9:00 AM 51 °F - 36 °F 45% 30.33 in 6 mi South 6.7 mph - -  
9:20 AM 51.8 °F - 37.4 °F 58% 30.33 in 6.2 mi South 10.4 mph - N/A   Unknown
9:23 AM 53.6 °F - 37.4 °F 54% 30.33 in 4.3 mi South 10.4 mph - N/A   Unknown
9:25 AM 53.6 °F - 37.4 °F 54% 30.33 in 5.0 mi South 10.4 mph - N/A   Unknown
9:43 AM 53.6 °F - 37.4 °F 54% 30.33 in 4.3 mi South 9.2 mph - N/A   Unknown
10:00 AM 54 °F - 38 °F 43% 30.34 in 5 mi South 11.2 mph - -  
10:17 AM 55.4 °F - 39.2 °F 54% 30.33 in 5.6 mi South 13.8 mph - N/A   Unknown
10:25 AM 55.4 °F - 39.2 °F 54% 30.33 in 4.3 mi South 13.8 mph - N/A   Unknown
11:00 AM 57 °F - 40 °F 41% 30.34 in 8 mi South 11.2 mph - -  
11:03 AM 57.2 °F - 39.2 °F 51% 30.33 in 5.6 mi South 10.4 mph - N/A   Unknown
11:04 AM 57.2 °F - 39.2 °F 51% 30.33 in 4.3 mi South 10.4 mph - N/A   Unknown
11:17 AM 59.0 °F - 41.0 °F 51% 30.33 in 5.6 mi South 10.4 mph - N/A   Unknown
11:25 AM 59.0 °F - 39.2 °F 48% 30.33 in 5.0 mi South 10.4 mph - N/A   Unknown
11:33 AM 59.0 °F - 41.0 °F 51% 30.33 in 4.3 mi South 10.4 mph - N/A   Unknown
11:44 AM 60.8 °F - 39.2 °F 45% 30.33 in 5.6 mi South 9.2 mph - N/A   Unknown
11:46 AM 60.8 °F - 41.0 °F 48% 30.33 in 4.3 mi South 9.2 mph - N/A   Unknown
11:57 AM 60.8 °F - 41.0 °F 48% 30.33 in 6.2 mi South 9.2 mph - N/A   Unknown
12:00 PM 61 °F - 41 °F 35% 30.35 in 7 mi South 8.9 mph - -  
12:25 PM 62.6 °F - 41.0 °F 45% 30.33 in 5.6 mi South 8.1 mph - N/A   Unknown
1:00 PM 64 °F - 41 °F 31% 30.34 in 7 mi South 6.7 mph - -  
1:25 PM 66.2 °F - 42.8 °F 43% 30.33 in 6.2 mi South 8.1 mph - N/A   Unknown
2:00 PM 66 °F - 39 °F 25% 30.32 in 17 mi SSW 11.2 mph - -  
2:25 PM 66.2 °F - 35.6 °F 32% 30.30 in 6.2 mi SSW 10.4 mph - N/A   Unknown
3:00 PM 68 °F - 38 °F 22% 30.30 in 10 mi SSW 11.2 mph - -  
3:25 PM 68.0 °F - 33.8 °F 28% 30.30 in 6.2 mi SSW 10.4 mph - N/A   Unknown
3:44 PM 68.0 °F - 33.8 °F 28% 30.30 in 3.7 mi SW 12.7 mph - N/A   Unknown
3:55 PM 68.0 °F - 32.0 °F 26% 30.30 in 6.2 mi SW 9.2 mph - N/A   Unknown
4:00 PM 68 °F - 32 °F 16% 30.30 in 9 mi SW 8.9 mph - -  
4:25 PM 66.2 °F - 37.4 °F 35% 30.30 in 6.2 mi SW 9.2 mph - N/A   Unknown
5:00 PM 65 °F - 38 °F 25% 30.30 in 7 mi SW 6.7 mph - -  
5:25 PM 68.0 °F - 41.0 °F 37% 30.30 in 6.2 mi SW 3.5 mph - N/A   Unknown
6:00 PM 62 °F - 40 °F 33% 30.30 in 7 mi 2.2 mph - -  
6:25 PM 60.8 °F - 37.4 °F 42% 30.30 in 6.2 mi South 4.6 mph - N/A   Unknown
7:00 PM 57 °F - 39 °F 39% 30.30 in 7 mi 2.2 mph - -  
7:25 PM 51.8 °F - 39.2 °F 62% 30.30 in 6.2 mi Variable 2.3 mph - N/A   Unknown
7:37 PM 53.6 °F - 39.2 °F 58% 30.30 in 4.3 mi Variable 2.3 mph - N/A   Unknown
8:00 PM 52 °F - 39 °F 50% 30.30 in 9 mi 2.2 mph - -  
8:11 PM 51.8 °F - 39.2 °F 62% 30.30 in - Variable 1.2 mph - N/A   Unknown
8:22 PM 48.2 °F - 41.0 °F 76% 30.30 in 4.3 mi Variable 1.2 mph - N/A   Unknown
8:25 PM 48.2 °F - 39.2 °F 71% 30.30 in 5.6 mi Variable 1.2 mph - N/A   Unknown
9:00 PM 47 °F - 40 °F 69% 30.30 in 7 mi 2.2 mph - -  
9:25 PM 44.6 °F - 39.2 °F 81% 30.30 in 6.2 mi Variable 2.3 mph - N/A   Unknown
10:00 PM 45 °F - 39 °F 71% 30.30 in 9 mi 2.2 mph - -  
10:25 PM 44.6 °F - 37.4 °F 76% 30.30 in 6.2 mi Variable 2.3 mph - N/A   Unknown
10:55 PM 42.8 °F 41.1 °F 37.4 °F 81% 30.30 in 3.7 mi Variable 3.5 mph - N/A   Unknown
11:00 PM 42 °F - 38 °F 79% 30.31 in 6 mi 2.2 mph - -  
11:06 PM 41.0 °F - 37.4 °F 87% 30.30 in 5.0 mi Variable 1.2 mph - N/A   Unknown
11:24 PM 41.0 °F - 37.4 °F 87% 30.30 in 4.3 mi Variable 2.3 mph - N/A   Unknown
11:25 PM 41.0 °F - 37.4 °F 87% 30.30 in 6.2 mi Variable 1.2 mph - N/A   Unknown